Flag for U.S.A. Weather past 2 weeks in Clearwater, Florida, U.S.A.

Now
62 °F

Passing clouds.


Feels Like: 62 °F
Forecast: 56 / 65 °F
Wind: 23 mph from Northwest

Location: St. Petersburg / Clearwater International Airport

Current Time: Jan 26, 2015 at 6:02:30 PM

Latest Report: Jan 26, 2015 at 4:53 PM


Visibility: 10 mi

Pressure: 29.91 "Hg

Humidity: 58%

Dew point: 47 °F

Location of ClearwaterLocation

Historic Weather in Clearwater — Graph

°F

Clearwater temperature yesterday

Maximum temperature yesterday: 63 °F (at 3:53 PM)
Minimum temperature yesterday: 45 °F (at 4:53 AM)
Average temperature yesterday: 55 °F

Past Weeks' High & Low Weather Summary

 TemperatureHumidityPressure
High79 °F (Jan 22, 2:53 PM)100% (Jan 12, 3:02 AM)30.28 "Hg (Jan 12, 3:02 AM)
Low45 °F (Jan 25, 4:53 AM)29% (Jan 19, 3:53 PM)29.83 "Hg (Jan 24, 3:53 AM)
Average62 °F82%30.09 "Hg
* Reported Jan 11 4:53 PM — Jan 26 4:53 PM, Clearwater, Weather by CustomWeather, © 2014

Note: Actual official high and low records may vary slightly from our data, if they occured in-between our weather recording intervals... More about our weather records

Advertising

Clearwater weather history for previous 24 hours

 ConditionsComfort  
Time TempWeatherWind HumidityBarometerVisibility
4:53 PM
Jan 26
62 °FPassing clouds.23 mph58%29.91 "Hg10 mi
3:53 PM63 °FBroken clouds.16 mph65%29.90 "Hg10 mi
2:53 PM62 °FScattered clouds.15 mph65%29.91 "Hg10 mi
1:53 PM63 °FScattered clouds.20 mph65%29.90 "Hg10 mi
12:53 PM66 °FScattered clouds.18 mph56%29.92 "Hg10 mi
11:53 AM64 °FSunny.17 mph56%29.93 "Hg10 mi
10:53 AM63 °FPassing clouds.21 mph60%29.96 "Hg10 mi
9:53 AM64 °FSunny.17 mph63%29.94 "Hg10 mi
8:53 AM63 °FPassing clouds.12 mph63%29.93 "Hg10 mi
7:53 AM61 °FScattered clouds.17 mph70%29.92 "Hg10 mi
6:53 AM60 °FMostly cloudy.9 mph90%29.88 "Hg10 mi
5:53 AM60 °FLight rain. Mostly cloudy.7 mph90%29.86 "Hg9 mi
4:53 AM63 °FPassing clouds.25 mph90%29.85 "Hg10 mi
3:53 AM65 °FMostly cloudy.12 mph78%29.85 "Hg10 mi
2:53 AM64 °FClear.10 mph78%29.86 "Hg10 mi
1:53 AM60 °FPassing clouds.7 mph83%29.90 "Hg10 mi
12:53 AM56 °FClear.5 mph87%29.92 "Hg10 mi
11:53 PM
Jan 25
56 °FClear.6 mph87%29.93 "Hg10 mi
10:53 PM57 °FClear.7 mph90%29.96 "Hg10 mi
9:53 PM54 °FClear.5 mph90%29.97 "Hg10 mi
8:53 PM54 °FClear.3 mph86%30.01 "Hg10 mi
7:53 PM55 °FPassing clouds.3 mph80%30.04 "Hg10 mi
6:53 PM55 °FClear.5 mph77%30.01 "Hg10 mi
Weather by CustomWeather, © 2014

See weather overviewHow to use our weather pages